This demonstration page uses our WeatherBlox Daily Observations layout. Learn more.

Hourly Observations for November 24, 2019

Temp ( °F °C ) Dew Point ( °F °C ) Humidity (%) Winds ( mph kmh ) Pressure ( in mb ) Visibility ( mi km ) Precip ( " mm )
12:15 am 00:15 Clear 38 3.3 27 -2.7 65 65 W 8 13 29.97 1015 10 16.0934 0 0
12:35 am 00:35 Clear 37 2.7 27 -3 66 66 W 6 9 29.98 1015 10 16.0934 0 0
12:55 am 00:55 Clear 35 1.4 27 -3 73 73 W 7 11 29.98 1015 10 16.0934 0 0
1:15 am 01:15 Clear 37 2.5 27 -2.7 69 69 W 8 13 29.97 1015 10 16.0934 0 0
1:35 am 01:35 Clear 37 2.5 28 -2.5 70 70 WNW 8 13 29.97 1015 10 16.0934 0 0
1:55 am 01:55 Clear 35 1.8 28 -2.5 73 73 WNW 7 11 29.97 1015 10 16.0934 0 0
2:15 am 02:15 Clear 35 1.9 28 -2.5 73 73 W 6 9 29.97 1015 10 16.0934 0 0
2:35 am 02:35 Clear 37 2.5 28 -2.3 71 71 WNW 8 13 29.96 1015 10 16.0934 0 0
2:55 am 02:55 Clear 36 2.1 28 -2.5 72 72 WNW 10 17 29.96 1015 10 16.0934 0 0
3:15 am 03:15 Clear 38 3.1 28 -2.5 67 67 WNW 10 17 29.97 1015 10 16.0934 0 0
3:35 am 03:35 Clear 38 3.5 28 -2.2 67 67 WNW 10 17 29.95 1014 10 16.0934 0 0
3:55 am 03:55 Clear 37 2.8 28 -2.4 69 69 WNW 8 13 29.96 1014 10 16.0934 0 0
4:15 am 04:15 Clear 37 2.7 28 -2.5 69 69 W 8 13 29.96 1015 10 16.0934 0 0
4:35 am 04:35 Clear 36 2.1 28 -2.5 72 72 W 9 15 29.96 1015 10 16.0934 0 0
4:55 am 04:55 Clear 34 0.9 27 -3 75 75 W 6 9 29.97 1015 10 16.0934 0 0
5:15 am 05:15 Clear 32 0 26 -3.3 79 79 W 6 9 29.96 1015 10 16.0934 0 0
5:35 am 05:35 Clear 32 -0.1 26 -3.2 80 80 W 5 7 29.97 1015 10 16.0934 0 0
5:55 am 05:55 Clear 31 -0.6 26 -3.5 81 81 WSW 6 9 29.96 1015 10 16.0934 0 0
6:15 am 06:15 Clear 30 -1.1 26 -3.6 83 83 W 7 11 29.96 1015 10 16.0934 0 0
6:35 am 06:35 Clear 32 -0.2 26 -3.3 80 80 W 6 9 29.95 1014 10 16.0934 0 0
6:55 am 06:55 Clear 32 -0.1 26 -3.5 78 78 W 7 11 29.95 1014 10 16.0934 0 0
7:15 am 07:15 Clear 32 0 26 -3.5 78 78 WSW 5 7 29.94 1014 10 16.0934 0 0
7:35 am 07:35 Sunny 31 -0.5 26 -3.6 80 80 W 8 13 29.94 1014 10 16.0934 0 0
7:55 am 07:55 Sunny 32 0 27 -3 80 80 W 8 13 29.93 1014 10 16.0934 0 0
8:15 am 08:15 Sunny 33 0.6 27 -2.6 79 79 W 8 13 29.93 1013 10 16.0934 0 0
8:35 am 08:35 Sunny 36 2 28 -2 75 75 W 5 7 29.91 1013 10 16.0934 0 0
8:55 am 08:55 Sunny 39 3.7 29 -1.4 70 70 W 5 7 29.89 1012 10 16.0934 0 0
9:15 am 09:15 Sunny 42 5.5 30 -1 63 63 WSW 6 9 29.87 1012 10 16.0934 0 0
9:35 am 09:35 Sunny 43 6.1 31 -0.8 62 62 WSW 6 9 29.86 1011 10 16.0934 0 0
9:55 am 09:55 Sunny 44 6.5 31 -0.8 60 60 WSW 6 9 29.84 1011 10 16.0934 0 0
10:15 am 10:15 Sunny 45 7 31 -0.4 60 60 W 13 20 29.85 1011 10 16.0934 0 0
10:35 am 10:35 Sunny 46 7.7 32 -0.2 58 58 WSW 13 20 29.84 1011 10 16.0934 0 0
10:55 am 10:55 Sunny 49 9.3 31 -0.3 51 51 W 12 19 29.82 1010 10 16.0934 0 0
11:15 am 11:15 Sunny 49 9.7 31 -0.4 50 50 W 10 17 29.8 1009 10 16.0934 0 0
11:35 am 11:35 Sunny 51 10.8 31 -0.5 46 46 W 12 19 29.77 1008 10 16.0934 0 0
11:55 am 11:55 Sunny 53 11.8 31 -0.8 42 42 W 9 15 29.75 1007 10 16.0934 0 0
12:15 pm 12:15 Sunny 54 12.2 31 -0.3 42 42 W 7 11 29.73 1007 10 16.0934 0 0
12:35 pm 12:35 Sunny 56 13.5 31 -0.3 39 39 WSW 10 17 29.71 1006 10 16.0934 0 0
12:55 pm 12:55 Sunny 56 13.6 32 -0.2 39 39 WSW 12 19 29.7 1006 10 16.0934 0 0
1:15 pm 13:15 Sunny 57 14 31 -0.5 37 37 WSW 7 11 29.68 1005 10 16.0934 0 0
1:35 pm 13:35 Sunny 58 14.4 31 -0.6 36 36 WSW 12 19 29.67 1005 10 16.0934 0 0
1:55 pm 13:55 Sunny 58 14.5 32 -0.1 37 37 SW 13 20 29.66 1005 10 16.0934 0 0
2:15 pm 14:15 Sunny 58 14.7 31 -0.6 35 35 WSW 10 17 29.66 1004 10 16.0934 0 0
2:35 pm 14:35 Sunny 59 15.2 31 -0.6 34 34 WSW 12 19 29.65 1004 10 16.0934 0 0
2:55 pm 14:55 Sunny 60 15.7 31 -0.8 33 33 WSW 10 17 29.63 1004 10 16.0934 0 0
3:15 pm 15:15 Sunny 60 15.7 30 -1 32 32 WSW 10 17 29.63 1004 10 16.0934 0 0
3:35 pm 15:35 Sunny 59 15.1 32 -0.2 35 35 SW 9 15 29.63 1003 10 16.0934 0 0
3:55 pm 15:55 Sunny 59 15.2 32 0.2 36 36 SW 6 9 29.63 1003 10 16.0934 0 0
4:15 pm 16:15 Sunny 58 14.2 33 0.6 40 40 SW 6 9 29.63 1003 10 16.0934 0 0
4:35 pm 16:35 Sunny 57 14.1 32 0.1 39 39 WSW 6 9 29.63 1003 10 16.0934 0 0
4:55 pm 16:55 Sunny 55 12.6 30 -0.9 40 40 W 10 17 29.65 1004 10 16.0934 0 0
5:15 pm 17:15 Clear 52 11.1 31 -0.8 44 44 W 6 9 29.65 1004 10 16.0934 0 0
5:35 pm 17:35 Clear 49 9.4 30 -1 49 49 Calm 29.67 1005 10 16.0934 0 0
5:55 pm 17:55 Clear 50 10 30 -1.2 46 46 Calm 29.66 1004 10 16.0934 0 0
6:15 pm 18:15 Clear 48 8.8 29 -1.5 49 49 WSW 5 7 29.67 1005 10 16.0934 0 0
6:35 pm 18:35 Clear 48 8.7 29 -1.4 49 49 WSW 3 6 29.66 1005 10 16.0934 0 0
6:55 pm 18:55 Clear 48 8.9 29 -1.5 48 48 WSW 3 6 29.66 1004 10 16.0934 0 0
7:15 pm 19:15 Clear 48 8.7 29 -1.5 49 49 WSW 3 6 29.66 1005 10 16.0934 0 0
7:35 pm 19:35 Clear 47 8.4 29 -1.5 50 50 Calm 29.67 1005 10 16.0934 0 0
7:55 pm 19:55 Clear 47 8.4 29 -1.6 50 50 Calm 29.66 1004 10 16.0934 0 0
8:15 pm 20:15 Clear 45 7.2 29 -1.5 54 54 SW 6 9 29.67 1005 10 16.0934 0 0
8:35 pm 20:35 Clear 45 7.1 30 -1.2 56 56 SW 6 9 29.66 1004 10 16.0934 0 0
8:55 pm 20:55 Clear 45 7 30 -1.1 57 57 SW 3 6 29.66 1004 10 16.0934 0 0
9:15 pm 21:15 Clear 46 7.6 30 -1 55 55 SW 6 9 29.66 1005 10 16.0934 0 0
9:35 pm 21:35 Clear 47 8.3 30 -1.2 52 52 WSW 3 6 29.66 1004 10 16.0934 0 0
9:55 pm 21:55 Clear 48 8.9 28 -2 47 47 W 3 6 29.65 1004 10 16.0934 0 0
10:15 pm 22:15 Clear 48 9.1 27 -2.6 44 44 W 3 6 29.64 1004 10 16.0934 0 0
10:35 pm 22:35 Clear 47 8.2 28 -2.4 48 48 W 5 7 29.64 1004 10 16.0934 0 0
10:55 pm 22:55 Clear 44 6.9 28 -2.2 53 53 W 7 11 29.67 1005 10 16.0934 0 0
11:15 pm 23:15 Clear 44 6.8 28 -2.3 53 53 W 5 7 29.66 1004 10 16.0934 0 0
11:35 pm 23:35 Clear 45 7 28 -2.5 51 51 W 8 13 29.66 1004 10 16.0934 0 0
11:55 pm 23:55 Clear 45 7 28 -2.5 51 51 W 12 19 29.66 1004 10 16.0934 0 0

Powered by AerisWeather